When you browse on this site, cookies collect data to enhance your experience and personalize the content and advertising you see.
Visit our Privacy Policy to learn more. By continuing to use the site, you agree to this use of cookies and data.
  • In Czech Republic
  • List of Countries
  • For 7 days
  • Water Temperature
  • Satellite Maps
  • Weather Map
  • Weather Widgets
  • user-avatar
    Login

    Hourly Weather Worksop

    Today, 19 November, Monday

    Time Temperature Precipitation Wind Pressure Humidity
    00:00 +5°C° 0 mm 4 mps 768 mmHg 86%
    01:00 +6°C° 0 mm 4 mps 767 mmHg 86%
    02:00 +6°C° 0 mm 4 mps 767 mmHg 86%
    03:00 +6°C° 0 mm 4 mps 767 mmHg 85%
    04:00 +6°C° 0 mm 5 mps 766 mmHg 83%
    05:00 +6°C° 0 mm 5 mps 766 mmHg 80%
    06:00 +6°C° 0 mm 5 mps 766 mmHg 77%
    07:00 +6°C° 0 mm 5 mps 766 mmHg 77%
    08:00 +6°C° 0 mm 4 mps 766 mmHg 77%
    09:00 +7°C° 0 mm 4 mps 766 mmHg 76%
    10:00 +7°C° 0.1 mm 5 mps 766 mmHg 75%
    11:00 +7°C° 0.1 mm 6 mps 765 mmHg 73%
    12:00 +7°C° 0.1 mm 6 mps 765 mmHg 72%
    13:00 +7°C° 0 mm 6 mps 765 mmHg 71%
    14:00 +7°C° 0 mm 6 mps 764 mmHg 71%
    15:00 +7°C° 0 mm 6 mps 764 mmHg 71%
    16:00 +5°C° 0 mm 6 mps 763 mmHg 71%
    17:00 +5°C° 0 mm 6 mps 763 mmHg 72%
    18:00 +5°C° 0 mm 6 mps 763 mmHg 72%
    19:00 +5°C° 0.1 mm 6 mps 763 mmHg 73%
    20:00 +5°C° 0.1 mm 6 mps 763 mmHg 73%
    21:00 +5°C° 0.1 mm 6 mps 762 mmHg 73%
    22:00 +5°C° 0.2 mm 6 mps 762 mmHg 73%
    23:00 +5°C° 0.2 mm 6 mps 762 mmHg 74%

    Tomorrow, 20 November, Tuesday

    Time Temperature Precipitation Wind Pressure Humidity
    00:00 +5°C° 0.2 mm 6 mps 761 mmHg 75%
    01:00 +5°C° 0.3 mm 6 mps 761 mmHg 75%
    02:00 +4°C° 0.3 mm 6 mps 760 mmHg 75%
    03:00 +4°C° 0.3 mm 6 mps 760 mmHg 75%
    04:00 +4°C° 0.2 mm 6 mps 759 mmHg 75%
    05:00 +4°C° 0.2 mm 6 mps 759 mmHg 75%
    06:00 +4°C° 0.2 mm 6 mps 759 mmHg 74%
    07:00 +4°C° 0.1 mm 6 mps 759 mmHg 73%
    08:00 +4°C° 0.1 mm 6 mps 758 mmHg 73%
    09:00 +4°C° 0.1 mm 6 mps 758 mmHg 72%
    10:00 +4°C° 0.2 mm 7 mps 757 mmHg 71%
    11:00 +5°C° 0.2 mm 7 mps 757 mmHg 70%
    12:00 +5°C° 0.2 mm 8 mps 757 mmHg 69%
    13:00 +5°C° 0.3 mm 8 mps 756 mmHg 70%
    14:00 +5°C° 0.3 mm 7 mps 756 mmHg 72%
    15:00 +4°C° 0.3 mm 7 mps 755 mmHg 73%
    16:00 +4°C° 0.5 mm 7 mps 755 mmHg 75%
    17:00 +4°C° 0.5 mm 6 mps 755 mmHg 78%
    18:00 +4°C° 0.5 mm 6 mps 755 mmHg 80%
    19:00 +5°C° 0.4 mm 5 mps 754 mmHg 81%
    20:00 +5°C° 0.4 mm 5 mps 754 mmHg 82%
    21:00 +5°C° 0.4 mm 4 mps 754 mmHg 83%
    22:00 +4°C° 0.5 mm 4 mps 754 mmHg 84%
    23:00 +4°C° 0.5 mm 3 mps 753 mmHg 85%

    Day after tomorrow, 21 November, Wednesday

    Time Temperature Precipitation Wind Pressure Humidity
    00:00 +4°C° 0.5 mm 3 mps 753 mmHg 86%
    01:00 +4°C° 0.6 mm 3 mps 753 mmHg 86%
    02:00 +4°C° 0.6 mm 3 mps 752 mmHg 87%
    03:00 +4°C° 0.6 mm 4 mps 752 mmHg 87%
    04:00 +4°C° 0.2 mm 3 mps 752 mmHg 87%
    05:00 +4°C° 0.2 mm 3 mps 752 mmHg 88%
    06:00 +4°C° 0.2 mm 3 mps 752 mmHg 88%
    07:00 +4°C° 0.1 mm 3 mps 752 mmHg 87%
    08:00 +4°C° 0.1 mm 3 mps 753 mmHg 86%
    09:00 +4°C° 0.1 mm 3 mps 754 mmHg 86%
    10:00 +4°C° 0 mm 4 mps 754 mmHg 81%
    11:00 +5°C° 0 mm 4 mps 755 mmHg 76%
    12:00 +5°C° 0 mm 5 mps 756 mmHg 72%
    13:00 +5°C° 0 mm 5 mps 756 mmHg 72%
    14:00 +5°C° 0 mm 4 mps 757 mmHg 72%
    15:00 +5°C° 0 mm 4 mps 757 mmHg 73%
    16:00 +4°C° 0 mm 4 mps 758 mmHg 75%
    17:00 +4°C° 0 mm 3 mps 758 mmHg 77%
    18:00 +3°C° 0 mm 3 mps 759 mmHg 79%
    19:00 +3°C° 0 mm 3 mps 759 mmHg 80%
    20:00 +3°C° 0 mm 2 mps 760 mmHg 81%
    21:00 +4°C° 0 mm 1 mps 760 mmHg 82%
    22:00 +4°C° 0 mm 1 mps 761 mmHg 82%
    23:00 +4°C° 0 mm 1 mps 761 mmHg 82%

    22 November, Thursday

    Time Temperature Precipitation Wind Pressure Humidity
    00:00 +3°C° 0 mm 1 mps 761 mmHg 82%
    01:00 +4°C° 0 mm 1 mps 761 mmHg 82%
    02:00 +3°C° 0 mm 2 mps 761 mmHg 82%
    03:00 +3°C° 0 mm 2 mps 761 mmHg 83%
    04:00 +4°C° 0.1 mm 2 mps 761 mmHg 85%
    05:00 +4°C° 0.1 mm 2 mps 761 mmHg 87%
    06:00 +4°C° 0.1 mm 2 mps 760 mmHg 90%
    07:00 +5°C° 0.1 mm 2 mps 760 mmHg 90%
    08:00 +4°C° 0.1 mm 3 mps 760 mmHg 91%
    09:00 +5°C° 0.1 mm 3 mps 760 mmHg 91%
    10:00 +6°C° 0.1 mm 2 mps 760 mmHg 90%
    11:00 +6°C° 0.1 mm 2 mps 760 mmHg 89%
    12:00 +7°C° 0.1 mm 2 mps 760 mmHg 88%
    13:00 +7°C° 0 mm 2 mps 760 mmHg 88%
    14:00 +7°C° 0 mm 2 mps 760 mmHg 88%
    15:00 +7°C° 0 mm 2 mps 760 mmHg 88%
    16:00 +6°C° 0 mm 2 mps 760 mmHg 89%
    17:00 +6°C° 0 mm 2 mps 760 mmHg 91%
    18:00 +6°C° 0 mm 1 mps 760 mmHg 92%
    19:00 +6°C° 0 mm 1 mps 760 mmHg 93%
    20:00 +6°C° 0 mm 1 mps 760 mmHg 93%
    21:00 +6°C° 0 mm 1 mps 760 mmHg 93%
    22:00 +5°C° 0 mm 1 mps 761 mmHg 93%
    23:00 +5°C° 0 mm 1 mps 761 mmHg 93%

    23 November, Friday

    Time Temperature Precipitation Wind Pressure Humidity
    00:00 +5°C° 0 mm 1 mps 761 mmHg 92%
    01:00 +4°C° 0 mm 1 mps 761 mmHg 91%
    02:00 +4°C° 0 mm 1 mps 761 mmHg 90%
    03:00 +3°C° 0 mm 1 mps 761 mmHg 89%
    04:00 +2°C° 0 mm 2 mps 760 mmHg 88%
    05:00 +2°C° 0 mm 2 mps 760 mmHg 87%
    06:00 +2°C° 0 mm 2 mps 760 mmHg 86%
    07:00 +3°C° 0 mm 2 mps 760 mmHg 87%
    08:00 +3°C° 0 mm 2 mps 760 mmHg 87%
    09:00 +4°C° 0 mm 2 mps 761 mmHg 87%
    10:00 +5°C° 0 mm 2 mps 760 mmHg 87%
    11:00 +6°C° 0 mm 2 mps 760 mmHg 87%
    12:00 +7°C° 0 mm 2 mps 760 mmHg 87%
    13:00 +7°C° 0 mm 2 mps 760 mmHg 88%
    14:00 +7°C° 0 mm 2 mps 760 mmHg 89%
    15:00 +7°C° 0 mm 2 mps 759 mmHg 90%
    16:00 +7°C° 0 mm 2 mps 759 mmHg 91%
    17:00 +7°C° 0 mm 2 mps 759 mmHg 92%
    18:00 +6°C° 0 mm 2 mps 759 mmHg 92%
    19:00 +7°C° 0 mm 2 mps 759 mmHg 92%
    20:00 +7°C° 0 mm 2 mps 759 mmHg 92%
    21:00 +7°C° 0 mm 2 mps 759 mmHg 92%
    22:00 +7°C° 0 mm 2 mps 759 mmHg 91%
    23:00 +7°C° 0 mm 2 mps 759 mmHg 91%

    24 November, Saturday

    Time Temperature Precipitation Wind Pressure Humidity
    00:00 +7°C° 0 mm 2 mps 759 mmHg 91%
    01:00 +7°C° 0 mm 2 mps 759 mmHg 91%
    02:00 +7°C° 0 mm 3 mps 759 mmHg 92%
    03:00 +7°C° 0 mm 3 mps 758 mmHg 92%
    04:00 +7°C° 0 mm 3 mps 758 mmHg 92%
    05:00 +7°C° 0 mm 3 mps 758 mmHg 92%
    06:00 +7°C° 0 mm 3 mps 758 mmHg 93%
    07:00 +7°C° 0.1 mm 3 mps 758 mmHg 93%
    08:00 +8°C° 0.1 mm 3 mps 758 mmHg 93%
    09:00 +8°C° 0.1 mm 3 mps 759 mmHg 93%
    10:00 +8°C° 0.1 mm 3 mps 758 mmHg 91%
    11:00 +8°C° 0.1 mm 4 mps 758 mmHg 89%
    12:00 +8°C° 0.1 mm 4 mps 758 mmHg 87%
    13:00 +9°C° 0.2 mm 3 mps 758 mmHg 88%
    14:00 +9°C° 0.2 mm 3 mps 758 mmHg 89%
    15:00 +9°C° 0.2 mm 3 mps 758 mmHg 91%
    16:00 +9°C° 0.3 mm 3 mps 758 mmHg 92%
    17:00 +8°C° 0.3 mm 3 mps 758 mmHg 93%
    18:00 +8°C° 0.3 mm 3 mps 758 mmHg 94%
    19:00 +8°C° 0.5 mm 3 mps 758 mmHg 95%
    20:00 +8°C° 0.5 mm 3 mps 758 mmHg 95%
    21:00 +8°C° 0.5 mm 2 mps 759 mmHg 95%
    22:00 +8°C° 0.5 mm 2 mps 759 mmHg 95%
    23:00 +8°C° 0.5 mm 2 mps 758 mmHg 95%
    Show more